This is the latest recevied weather packets stored in our database for station/object K0VSC-1. If no packets are shown the sender has not sent any weather packets the latest 10 day(s).
| Time | Temp. | Humidity | Pressure | Rain* | Wind** | Luminosity | Snow |
|---|---|---|---|---|---|---|---|
| 1777665495 | 9.44° C | 37% | 1019.7 hPa | 0 mm | - | 851 W/m² | - |
| 1777665195 | 9.44° C | 40% | 1019.7 hPa | 0 mm | - | 856 W/m² | - |
| 1777664895 | 8.89° C | 40% | 1019.7 hPa | 0 mm | - | 911 W/m² | - |
| 1777664595 | 8.89° C | 39% | 1019.8 hPa | 0 mm | - | 951 W/m² | - |
| 1777664295 | 9.44° C | 39% | 1019.7 hPa | 0 mm | - | 1027 W/m² | - |
| 1777663995 | 8.89° C | 40% | 1019.8 hPa | 0 mm | - | 891 W/m² | - |
| 1777663695 | 9.44° C | 39% | 1019.9 hPa | 0 mm | - | 882 W/m² | - |
| 1777663395 | 8.89° C | 40% | 1019.8 hPa | 0 mm | - | 944 W/m² | - |
| 1777663095 | 8.89° C | 44% | 1019.7 hPa | 0 mm | - | 937 W/m² | - |
| 1777662795 | 8.33° C | 42% | 1019.8 hPa | 0 mm | - | 914 W/m² | - |
| 1777662495 | 8.33° C | 42% | 1019.8 hPa | 0 mm | - | 1048 W/m² | - |
| 1777662195 | 8.33° C | 43% | 1019.9 hPa | 0 mm | - | 346 W/m² | - |
| 1777661895 | 8.33° C | 43% | 1019.8 hPa | 0 mm | - | 350 W/m² | - |
| 1777661595 | 8.33° C | 43% | 1019.8 hPa | 0 mm | - | 355 W/m² | - |
| 1777661295 | 8.33° C | 42% | 1019.8 hPa | 0 mm | - | 227 W/m² | - |
| 1777660995 | 8.33° C | 45% | 1019.8 hPa | 0 mm | - | 248 W/m² | - |
| 1777660695 | 8.33° C | 42% | 1019.8 hPa | 0 mm | - | 1014 W/m² | - |
| 1777660395 | 8.33° C | 45% | 1019.8 hPa | 0 mm | - | 983 W/m² | - |
| 1777660095 | 8.33° C | 45% | 1019.9 hPa | 0 mm | - | 930 W/m² | - |
| 1777659795 | 7.78° C | 47% | 1020.1 hPa | 0 mm | - | 939 W/m² | - |
| 1777659495 | 7.78° C | 46% | 1020.1 hPa | 0 mm | - | 983 W/m² | - |
| 1777659195 | 7.78° C | 47% | 1020.2 hPa | 0 mm | - | 271 W/m² | - |
| 1777658895 | 7.78° C | 48% | 1020.1 hPa | 0 mm | - | 315 W/m² | - |
| 1777658595 | 7.78° C | 51% | 1020.1 hPa | 0 mm | - | 292 W/m² | - |
| 1777658295 | 7.22° C | 46% | 1020.1 hPa | 0 mm | - | 274 W/m² | - |
* Rain latest hour (hover to see other rain measurements)
** Current wind speed in m/s (hover to see current wind gust speed)